Total_Precipitation_Accumulation
3.78 3.75 3.70 3.66 3.60 3.54 3.77 3.95 3.86 4.17 4.37 3.94 3.50 3.30 3.30 3.42 3.34 3.35 3.13 2.95 2.93 3.21 3.78 4.16 4.10 3.92 3.71 3.54 3.55 3.53 3.37 3.06 2.81 2.54 2.41 2.50 2.53 2.49 2.44 2.45 2.38 2.28 2.19
3.95 4.05 3.88 3.71 3.47 3.35 3.45 3.63 3.79 4.28 4.31 4.11 3.72 3.44 3.24 3.18 3.02 2.96 3.07 3.26 3.11 3.04 3.27 3.80 4.26 4.32 4.23 3.96 3.72 3.66 3.61 3.53 3.27 2.74 2.45 2.50 2.59 2.59 2.56 2.52 2.40 2.24 2.11
3.78 3.75 3.51 3.36 3.29 3.38 3.59 3.59 3.81 4.00 3.75 3.83 3.70 3.46 3.15 2.86 2.67 2.68 2.87 3.12 3.03 3.03 3.29 3.58 3.92 4.21 4.45 4.56 4.41 4.24 3.92 3.63 3.45 3.10 2.75 2.55 2.50 2.47 2.40 2.38 2.37 2.24 2.07
3.26 3.58 3.30 3.15 3.44 3.46 3.61 3.92 4.11 4.01 4.05 4.12 3.82 3.40 3.07 2.89 2.51 2.45 2.49 2.66 2.90 2.68 3.09 3.46 3.63 3.83 4.33 4.93 5.15 5.08 4.69 4.26 3.93 3.64 3.32 2.98 2.79 2.58 2.36 2.22 2.22 2.13 1.97
3.10 3.45 3.42 3.52 3.57 3.70 3.79 3.61 4.07 4.12 4.08 4.14 3.62 3.38 2.99 2.68 2.53 2.33 2.23 2.22 2.49 2.77 2.89 3.02 3.30 3.55 4.09 5.03 5.51 5.61 5.48 5.00 4.34 4.11 3.96 3.71 3.47 3.10 2.71 2.46 2.31 2.12 1.96
3.12 3.54 3.43 3.45 3.50 3.75 3.88 3.82 3.98 4.02 3.77 3.79 3.38 3.33 2.91 2.39 2.30 2.23 2.04 2.07 2.24 2.35 2.74 3.13 3.50 3.24 3.54 4.24 4.82 5.48 5.86 5.58 4.89 4.51 4.51 4.37 4.22 3.85 3.26 2.86 2.64 2.39 2.20
3.16 3.66 3.40 3.68 3.61 3.67 3.74 3.77 3.93 3.85 3.57 3.75 3.86 3.45 2.81 2.32 2.30 2.08 2.04 2.11 2.16 2.22 2.70 3.28 3.56 3.45 3.15 3.21 3.70 4.36 5.20 5.59 5.26 4.81 4.67 4.66 4.70 4.45 3.84 3.33 3.03 2.73 2.50
3.33 3.37 3.64 3.61 3.70 3.88 3.84 3.79 3.93 3.71 3.35 3.64 4.05 4.16 3.40 2.95 2.40 1.83 1.98 2.17 2.44 2.56 2.68 2.91 3.08 3.34 3.36 3.55 3.34 3.41 4.25 5.16 5.51 5.30 4.94 4.61 4.54 4.45 4.16 3.86 3.47 3.17 2.95
3.55 3.57 3.57 3.53 3.59 3.40 3.50 3.59 3.61 3.64 3.58 3.49 3.81 4.24 3.80 3.32 2.83 2.14 1.99 2.08 2.41 2.72 2.74 2.78 2.81 3.13 3.35 3.86 4.01 3.65 3.50 4.02 4.89 5.65 5.58 4.95 4.45 4.26 4.22 4.12 3.98 3.68 3.36
3.35 3.18 3.14 3.33 3.38 3.15 3.26 2.91 3.11 3.33 3.34 3.21 3.51 3.59 3.61 3.62 3.53 2.81 2.31 2.11 2.23 2.46 2.62 2.54 2.63 2.95 3.32 3.77 4.14 3.88 3.29 3.12 3.63 4.73 5.41 5.32 4.88 4.45 4.18 4.21 4.48 4.45 3.98
3.08 2.74 2.79 3.05 3.04 2.97 2.90 2.80 3.03 2.90 2.84 2.95 3.22 3.41 3.48 3.58 3.45 3.23 2.74 2.69 2.64 2.47 2.42 2.44 2.67 2.88 3.16 3.52 3.99 3.75 3.47 3.21 3.03 3.29 3.99 4.60 4.83 4.70 4.55 4.78 5.30 5.58 5.31
2.80 2.49 2.40 2.64 2.81 2.88 2.87 2.84 2.94 2.86 2.92 3.04 3.04 3.10 3.36 3.40 3.38 3.47 2.96 2.78 2.84 2.55 2.43 2.55 2.61 2.87 2.99 3.21 3.31 3.44 3.35 3.14 2.95 2.92 3.15 3.54 3.92 4.27 4.45 4.81 5.37 5.88 6.12
2.45 2.40 2.42 2.59 2.66 2.75 2.64 2.71 2.80 2.80 2.97 3.06 2.98 2.91 3.03 3.08 3.20 3.47 3.39 3.01 2.86 2.66 2.74 2.63 2.50 2.61 2.60 2.77 2.95 3.02 2.76 2.60 2.48 2.48 2.58 2.76 2.88 3.26 3.61 4.12 4.80 5.35 5.68
2.43 2.53 2.54 2.42 2.39 2.49 2.37 2.69 2.62 2.67 2.91 3.01 2.72 3.01 3.04 3.03 3.32 3.57 3.67 3.78 3.37 3.02 2.95 2.88 2.70 2.49 2.57 2.61 2.66 2.62 2.37 2.30 2.00 1.99 2.08 2.21 2.36 2.53 2.83 3.22 3.82 4.24 4.36
2.47 2.62 2.60 2.53 2.42 2.49 2.62 2.92 2.83 2.76 2.99 2.97 2.98 3.21 3.17 3.08 3.22 3.36 3.60 3.90 4.00 3.55 3.25 3.20 3.00 2.63 2.55 2.59 2.61 2.33 2.36 2.31 2.01 1.87 1.78 1.76 1.88 2.01 2.10 2.37 2.78 3.03 3.18
2.35 2.59 2.75 2.65 2.50 2.52 2.70 2.91 2.87 3.01 3.20 3.24 3.34 3.44 3.40 3.20 3.29 3.34 3.41 3.67 4.03 3.93 3.45 3.02 2.82 2.51 2.40 2.25 2.52 2.26 2.29 2.32 2.08 1.91 1.73 1.66 1.69 1.74 1.75 1.81 2.11 2.40 2.57
2.44 2.52 2.63 2.62 2.53 2.57 2.71 2.77 2.73 3.06 3.22 3.27 3.27 3.29 3.25 3.41 3.40 3.28 3.40 3.58 3.86 3.93 3.48 2.87 2.72 2.69 2.71 2.59 2.60 2.40 2.26 2.22 2.02 1.92 1.74 1.68 1.68 1.70 1.73 1.75 1.87 2.04 2.11
2.46 2.40 2.47 2.47 2.35 2.40 2.62 2.63 2.68 3.05 3.27 3.09 3.09 3.11 2.87 2.98 3.11 2.95 3.09 3.15 3.29 3.54 3.43 3.05 2.95 2.91 2.90 2.82 2.83 2.75 2.44 2.17 1.90 1.92 1.72 1.66 1.69 1.69 1.71 1.72 1.77 1.83 1.97
2.19 2.20 2.22 2.24 2.32 2.52 2.60 2.57 2.62 2.66 2.71 2.77 2.99 3.11 2.91 2.92 2.80 2.81 2.84 2.81 2.88 3.00 3.26 3.14 2.95 3.00 2.94 2.97 2.93 2.73 2.51 2.35 1.94 1.88 1.85 1.74 1.69 1.64 1.62 1.63 1.66 1.78 2.01
1.99 2.06 2.16 2.26 2.36 2.45 2.47 2.56 2.64 2.54 2.51 2.58 2.74 2.85 2.83 2.75 2.63 2.74 2.67 2.69 2.78 2.96 3.16 3.21 3.05 3.14 3.14 3.11 3.20 2.95 2.95 2.75 2.46 2.11 2.07 1.93 1.89 1.84 1.75 1.64 1.59 1.66 1.88
2.05 2.14 2.22 2.26 2.27 2.23 2.14 2.25 2.34 2.40 2.55 2.49 2.40 2.35 2.33 2.36 2.34 2.40 2.25 2.46 2.74 2.90 2.99 3.02 3.01 3.18 3.31 3.40 3.23 3.18 3.22 3.13 2.86 2.49 2.33 2.10 2.03 1.92 1.93 1.90 1.77 1.68 1.70
2.21 2.23 2.18 2.23 2.19 1.88 2.10 2.18 2.19 2.30 2.45 2.45 2.30 2.15 2.02 1.98 1.91 1.95 1.93 2.05 2.36 2.57 2.70 2.86 2.83 2.94 3.17 3.38 3.53 3.52 3.40 3.30 3.14 2.91 2.82 2.67 2.49 2.42 2.29 2.10 2.04 1.89 1.77
2.35 2.28 2.19 2.18 2.17 2.25 2.34 2.14 1.99 1.96 2.08 2.14 2.11 2.07 1.78 1.68 1.87 1.83 1.90 1.89 1.90 2.07 2.25 2.52 2.61 2.54 2.76 3.07 3.42 3.33 3.51 3.58 3.44 3.39 3.41 3.19 2.88 2.66 2.38 2.21 2.10 1.82 1.68
2.50 2.49 2.42 2.32 2.30 2.27 2.27 2.04 2.02 1.91 1.92 1.94 1.97 2.00 1.96 1.87 1.93 2.06 2.05 1.96 1.83 1.80 1.95 2.02 2.12 2.26 2.51 2.89 3.22 3.19 3.28 3.38 3.37 3.33 3.38 3.28 2.94 2.76 2.46 2.30 2.29 2.00 1.70
2.57 2.51 2.44 2.46 2.42 2.43 2.49 2.26 2.26 2.08 2.08 2.09 2.14 2.16 2.12 2.01 2.17 2.11 2.00 1.97 1.92 1.92 2.02 2.14 2.06 2.12 2.36 2.53 2.76 2.87 2.87 2.99 2.87 2.76 2.94 3.13 3.04 2.95 2.76 2.51 2.37 2.20 1.78
2.59 2.61 2.61 2.58 2.56 2.58 2.80 2.59 2.44 2.24 2.25 2.26 2.39 2.39 2.45 2.28 2.26 2.19 2.02 2.02 2.02 2.06 2.18 2.11 2.07 2.00 2.01 2.27 2.58 2.61 2.82 3.08 2.94 2.67 2.41 2.60 2.77 3.01 3.08 2.76 2.52 2.38 2.22